Hourly Data Report for September 06, 2017

All times are specified in Local Standard Time (LST). Add 1 hour to adjust for Daylight Saving Time where and when it is observed.

MIRAMICHI RCS
NEW BRUNSWICK

47°00'34.000" N
65°27'54.000" W
33.00 m
8100989
71744
ACQ

Download Data

Hourly Data (September 2017)
Hourly Data Report for September 6, 2017
Temp Definition
°C
Dew Point Temp Definition
°C
Rel Hum Definition
%
Wind Dir Definition
10's deg

Wind Spd Definition
km/h
Visibility Definition
km
Stn Press Definition
kPa
Hmdx Definition


Wind Chill Definition


Weather Definition


TIME
00:00 18.6 16.7 89 22 17   100.58     LegendNANA
01:00 17.8 17.0 95 14 8   100.41     LegendNANA
02:00 18.2 17.3 94 22 16   100.56     LegendNANA
03:00 18.0 17.2 95 20 12   100.50     LegendNANA
04:00 18.1 17.2 95 22 12   100.62     LegendNANA
05:00 18.1 17.4 96 22 13   100.67     LegendNANA
06:00 18.1 17.3 95 23 12   100.76     LegendNANA
07:00 18.4 17.6 95 21 10   100.81     LegendNANA
08:00 18.8 17.8 94 21 13   100.86     LegendNANA
09:00 19.0 17.9 94 22 13   100.95     LegendNANA
10:00 19.5 18.2 92 21 10   100.98     LegendNANA
11:00 19.9 18.3 90 22 10   101.02     LegendNANA
12:00 20.1 18.0 88 20 13   101.02 26   LegendNANA
13:00 19.6 18.3 92 23 11   101.04     LegendNANA
14:00 20.1 18.7 92 23 7   101.01 27   LegendNANA
15:00 21.4 19.4 88 30 3   100.96 28   LegendNANA
16:00 21.7 19.8 89 28 2   100.97 29   LegendNANA
17:00 21.3 19.7 91 33 4   100.95 29   LegendNANA
18:00 20.9 19.8 94 6 5   100.96 28   LegendNANA
19:00 18.7 17.9 95 1 6   100.96     LegendNANA
20:00 19.9 18.9 94 21 11   100.98     LegendNANA
21:00 19.4 18.3 93 21 18   101.05     LegendNANA
22:00 18.8 18.0 95 19 13   101.02     LegendNANA
23:00 18.7 18.0 96 19 10   101.01     LegendNANA

Notes on Data Quality.

Legend

  • E = Estimated
  • M = Missing
  • NA = Not Available
  • ‡ = Partner data that is not subject to review by the National Climate Archives
Date modified: